Terug naar catalogus

CZ-6A DEB

ActiefSSO
NORAD 55540·DEBRIS·🇨🇳 China

Gelanceerd Nov 11, 2022 vanaf Taiyuan Satellite Launch Center

Loading…

Volgende Passages (komende 24 uur)

TLE

VersSource: Space-Track

Epoch: Sep 14, 2026, 00:24 UTC

1 55540U 22151YN  26257.01720542  .00000854  00000-0  29104-3 0  9999
2 55540  98.6436 287.8250 0101969 147.8234 212.9229 14.36121423195238

Volg CZ-6A DEB in realtime met AllMySat

Download on the App Store